Location: Arrien
(43.3167°N, 0.1500°W)
Time: 03:17:58
(UTC+00:00)

SL-08 R/B - Pass Details

Date: 15 October 2021
Orbit: 950 x 1018 km, 82.9° (Epoch: 02 December)

Event Time Altitude Azimuth Distance (km) Brightness Sun altitude
Rises 18:15:29 0° 182° (S) 3,624 7.5 -11.3°
Reaches altitude 10° 18:17:57 10° 181° (S) 2,688 6.8 -11.8°
Maximum altitude 18:24:06 81° 95° (E) 990 4.4 -12.9°
Drops below altitude 10° 18:30:24 10° 10° (N) 2,751 6.8 -14.0°
Sets 18:32:57 0° 9° (N) 3,713 7.5 -14.5°
